TimeCST,TemperatureF,Dew PointF,Humidity,Sea Level PressureIn,VisibilityMPH,Wind Direction,Wind SpeedMPH,Gust SpeedMPH,PrecipitationIn,Events,Conditions,WindDirDegrees,DateUTC
12:15 AM,35.6,30.2,81,30.42,10.0,SSW,5.8,-,N/A,,Clear,200,2013-11-29 06:15:00
12:35 AM,35.6,30.2,81,30.42,10.0,SSW,5.8,-,N/A,,Clear,200,2013-11-29 06:35:00
12:55 AM,35.6,30.2,81,30.43,10.0,SSW,4.6,-,N/A,,Clear,200,2013-11-29 06:55:00
1:15 AM,35.6,30.2,81,30.42,10.0,SSW,3.5,-,N/A,,Clear,200,2013-11-29 07:15:00
1:35 AM,35.6,30.2,81,30.42,10.0,South,4.6,-,N/A,,Clear,190,2013-11-29 07:35:00
1:55 AM,35.6,30.2,81,30.42,7.0,South,3.5,-,N/A,,Clear,190,2013-11-29 07:55:00
2:15 AM,35.6,30.2,81,30.42,10.0,SSW,4.6,-,N/A,,Clear,200,2013-11-29 08:15:00
2:35 AM,33.8,30.2,87,30.43,10.0,South,4.6,-,N/A,,Clear,180,2013-11-29 08:35:00
2:55 AM,33.8,30.2,87,30.43,10.0,South,5.8,-,N/A,,Clear,180,2013-11-29 08:55:00
3:15 AM,33.8,30.2,87,30.43,10.0,South,4.6,-,N/A,,Clear,180,2013-11-29 09:15:00
3:35 AM,32.0,28.4,87,30.44,10.0,South,4.6,-,N/A,,Clear,170,2013-11-29 09:35:00
3:55 AM,32.0,30.2,93,30.44,10.0,South,4.6,-,N/A,,Clear,180,2013-11-29 09:55:00
4:15 AM,32.0,30.2,93,30.43,10.0,South,4.6,-,N/A,,Clear,180,2013-11-29 10:15:00
4:35 AM,32.0,30.2,93,30.43,10.0,South,4.6,-,N/A,,Clear,180,2013-11-29 10:35:00
4:55 AM,32.0,30.2,93,30.43,10.0,South,4.6,-,N/A,,Clear,180,2013-11-29 10:55:00
5:15 AM,32.0,30.2,93,30.43,10.0,SSE,4.6,-,N/A,,Clear,160,2013-11-29 11:15:00
5:35 AM,32.0,28.4,87,30.44,10.0,SE,4.6,-,N/A,,Clear,140,2013-11-29 11:35:00
5:55 AM,32.0,28.4,87,30.44,10.0,SE,4.6,-,N/A,,Clear,140,2013-11-29 11:55:00
6:15 AM,32.0,28.4,87,30.44,10.0,SSE,4.6,-,N/A,,Clear,150,2013-11-29 12:15:00
6:35 AM,32.0,28.4,87,30.44,10.0,SSE,4.6,-,N/A,,Clear,150,2013-11-29 12:35:00
6:55 AM,32.0,28.4,87,30.45,10.0,SSE,5.8,-,N/A,,Clear,160,2013-11-29 12:55:00
7:15 AM,32.0,28.4,87,30.45,10.0,SSE,5.8,-,N/A,,Clear,150,2013-11-29 13:15:00
7:35 AM,32.0,28.4,87,30.45,10.0,SSE,4.6,-,N/A,,Clear,150,2013-11-29 13:35:00
7:55 AM,32.0,30.2,93,30.45,10.0,SSE,5.8,-,N/A,,Clear,150,2013-11-29 13:55:00
8:15 AM,32.0,30.2,93,30.46,10.0,SSE,5.8,-,N/A,,Clear,160,2013-11-29 14:15:00
8:35 AM,33.8,32.0,93,30.47,10.0,SSE,5.8,-,N/A,,Clear,160,2013-11-29 14:35:00
8:55 AM,35.6,32.0,87,30.47,7.0,SSE,4.6,-,N/A,,Clear,160,2013-11-29 14:55:00
9:15 AM,39.2,33.8,81,30.46,10.0,South,6.9,-,N/A,,Clear,170,2013-11-29 15:15:00
9:35 AM,41.0,33.8,76,30.46,10.0,South,5.8,-,N/A,,Clear,170,2013-11-29 15:35:00
9:55 AM,44.6,33.8,66,30.45,10.0,SSE,5.8,-,N/A,,Clear,160,2013-11-29 15:55:00
10:15 AM,46.4,33.8,62,30.45,10.0,South,5.8,-,N/A,,Clear,180,2013-11-29 16:15:00
10:35 AM,50.0,33.8,54,30.45,10.0,South,6.9,-,N/A,,Clear,180,2013-11-29 16:35:00
10:55 AM,50.0,33.8,54,30.44,10.0,South,8.1,-,N/A,,Clear,190,2013-11-29 16:55:00
11:15 AM,51.8,33.8,50,30.44,10.0,South,8.1,-,N/A,,Clear,190,2013-11-29 17:15:00
11:35 AM,53.6,33.8,47,30.43,10.0,South,8.1,-,N/A,,Clear,190,2013-11-29 17:35:00
11:55 AM,53.6,33.8,47,30.42,10.0,South,9.2,-,N/A,,Clear,170,2013-11-29 17:55:00
12:15 PM,55.4,32.0,41,30.40,10.0,South,9.2,-,N/A,,Clear,180,2013-11-29 18:15:00
12:35 PM,55.4,32.0,41,30.39,10.0,South,11.5,-,N/A,,Clear,190,2013-11-29 18:35:00
12:55 PM,57.2,32.0,38,30.37,10.0,SSW,10.4,-,N/A,,Clear,200,2013-11-29 18:55:00
1:15 PM,59.0,32.0,36,30.36,10.0,South,10.4,-,N/A,,Clear,180,2013-11-29 19:15:00
1:35 PM,59.0,32.0,36,30.35,7.0,South,12.7,19.6,N/A,,Clear,180,2013-11-29 19:35:00
1:55 PM,59.0,33.8,39,30.34,7.0,SSW,11.5,-,N/A,,Clear,200,2013-11-29 19:55:00
2:15 PM,59.0,32.0,36,30.33,10.0,South,12.7,-,N/A,,Clear,190,2013-11-29 20:15:00
2:35 PM,59.0,33.8,39,30.32,10.0,SSW,11.5,-,N/A,,Clear,200,2013-11-29 20:35:00
2:55 PM,59.0,33.8,39,30.31,10.0,South,12.7,16.1,N/A,,Clear,180,2013-11-29 20:55:00
3:15 PM,59.0,32.0,36,30.30,10.0,South,12.7,19.6,N/A,,Clear,170,2013-11-29 21:15:00
3:35 PM,59.0,32.0,36,30.29,10.0,South,11.5,18.4,N/A,,Clear,170,2013-11-29 21:35:00
3:55 PM,59.0,33.8,39,30.29,10.0,South,12.7,18.4,N/A,,Clear,170,2013-11-29 21:55:00
4:15 PM,59.0,33.8,39,30.28,10.0,SSE,11.5,17.3,N/A,,Clear,160,2013-11-29 22:15:00
4:35 PM,57.2,33.8,41,30.27,10.0,South,9.2,-,N/A,,Clear,170,2013-11-29 22:35:00
4:55 PM,55.4,33.8,44,30.28,10.0,SSE,9.2,-,N/A,,Clear,160,2013-11-29 22:55:00
5:15 PM,53.6,33.8,47,30.27,10.0,South,8.1,-,N/A,,Clear,170,2013-11-29 23:15:00
5:35 PM,51.8,33.8,50,30.28,10.0,SSE,6.9,-,N/A,,Clear,160,2013-11-29 23:35:00
5:55 PM,50.0,33.8,54,30.29,10.0,SSE,4.6,-,N/A,,Clear,160,2013-11-29 23:55:00
6:15 PM,50.0,33.8,54,30.29,10.0,SSE,5.8,-,N/A,,Clear,150,2013-11-30 00:15:00
6:35 PM,48.2,33.8,58,30.29,10.0,SSE,5.8,-,N/A,,Clear,150,2013-11-30 00:35:00
6:55 PM,46.4,35.6,66,30.29,10.0,SSE,5.8,-,N/A,,Clear,150,2013-11-30 00:55:00
7:15 PM,46.4,35.6,66,30.29,10.0,SSE,6.9,-,N/A,,Clear,160,2013-11-30 01:15:00
7:35 PM,44.6,35.6,71,30.28,10.0,South,6.9,-,N/A,,Clear,170,2013-11-30 01:35:00
7:55 PM,44.6,35.6,71,30.27,10.0,South,9.2,-,N/A,,Clear,170,2013-11-30 01:55:00
8:15 PM,46.4,35.6,66,30.28,10.0,South,8.1,-,N/A,,Clear,170,2013-11-30 02:15:00
8:35 PM,46.4,35.6,66,30.28,10.0,South,9.2,-,N/A,,Clear,180,2013-11-30 02:35:00
8:55 PM,46.4,35.6,66,30.29,10.0,South,6.9,-,N/A,,Clear,170,2013-11-30 02:55:00
9:15 PM,46.4,35.6,66,30.28,10.0,South,8.1,-,N/A,,Clear,180,2013-11-30 03:15:00
9:35 PM,46.4,35.6,66,30.27,10.0,South,10.4,-,N/A,,Clear,180,2013-11-30 03:35:00
9:55 PM,46.4,35.6,66,30.27,10.0,South,8.1,-,N/A,,Clear,180,2013-11-30 03:55:00
10:15 PM,46.4,35.6,66,30.27,10.0,South,9.2,-,N/A,,Clear,180,2013-11-30 04:15:00
10:35 PM,44.6,35.6,71,30.27,10.0,South,8.1,-,N/A,,Clear,180,2013-11-30 04:35:00
10:55 PM,44.6,35.6,71,30.27,10.0,South,8.1,-,N/A,,Clear,190,2013-11-30 04:55:00
11:15 PM,44.6,35.6,71,30.27,10.0,South,8.1,-,N/A,,Clear,180,2013-11-30 05:15:00
11:35 PM,44.6,35.6,71,30.27,10.0,South,6.9,-,N/A,,Clear,170,2013-11-30 05:35:00
11:55 PM,44.6,35.6,71,30.27,10.0,South,8.1,-,N/A,,Clear,180,2013-11-30 05:55:00